Location: Newark
(7.1028°S, 35.3258°W)
Time: 10:11:12
(UTC+00:00)

Vanguard 3 - Pass Details

Date: 01 March 2020
Orbit: 508 x 3263 km, 33.4° (Epoch: 06 April)

Event Time Altitude Azimuth Distance (km) Brightness Sun altitude
Rises 01:41:26 0° 231° (SW) 6,933 12.2 -70.5°
Reaches altitude 10° 01:47:40 10° 221° (SW) 5,565 11.5 -71.5°
Enters shadow 01:52:50 19° 207° (SSW) 4,451 10.9 -72.2°
